Time,TemperatureF,DewpointF,PressureIn,WindDirection,WindDirectionDegrees,WindSpeedMPH,WindSpeedGustMPH,Humidity,HourlyPrecipIn,Conditions,Clouds,dailyrainin,SoftwareType,DateUTC
2013-04-25 00:02:00,49.0,48.0,-100.00,SSW,210,20.0,22.0,96,-99.99,,,-99.99,,2013-04-25 04:02:00,
2013-04-25 00:12:00,49.0,48.0,-100.00,SSW,210,20.0,22.0,96,-99.99,,,-99.99,,2013-04-25 04:12:00,
2013-04-25 00:22:00,49.0,48.0,-100.00,SW,220,18.0,22.0,96,-99.99,,,-99.99,,2013-04-25 04:22:00,
2013-04-25 00:32:00,49.0,48.0,-100.00,SSW,210,18.0,22.0,96,-99.99,,,-99.99,,2013-04-25 04:32:00,
2013-04-25 00:42:00,49.0,48.0,-100.00,SSW,210,18.0,22.0,96,-99.99,,,-99.99,,2013-04-25 04:42:00,
2013-04-25 00:52:00,49.0,48.0,-100.00,SSW,210,18.0,22.0,96,-99.99,,,-99.99,,2013-04-25 04:52:00,
2013-04-25 01:02:00,49.0,48.0,-100.00,SSW,210,18.0,22.0,95,-99.99,,,-99.99,,2013-04-25 05:02:00,
2013-04-25 01:11:00,49.0,48.0,-100.00,SSW,210,18.0,22.0,95,-99.99,,,-99.99,,2013-04-25 05:11:00,
2013-04-25 01:21:00,49.0,48.0,-100.00,SSW,210,18.0,22.0,95,-99.99,,,-99.99,,2013-04-25 05:21:00,
2013-04-25 01:31:00,49.0,48.0,-100.00,SSW,210,18.0,22.0,95,-99.99,,,-99.99,,2013-04-25 05:31:00,
2013-04-25 01:42:00,50.0,48.0,-100.00,SSW,210,18.0,22.0,94,-99.99,,,-99.99,,2013-04-25 05:42:00,
2013-04-25 01:51:00,50.0,48.0,-100.00,SSW,210,18.0,22.0,94,-99.99,,,-99.99,,2013-04-25 05:51:00,
2013-04-25 02:01:00,50.0,48.0,-100.00,SSW,210,20.0,25.0,93,-99.99,,,-99.99,,2013-04-25 06:01:00,
2013-04-25 02:11:00,50.0,48.0,-100.00,SSW,210,20.0,25.0,93,-99.99,,,-99.99,,2013-04-25 06:11:00,
2013-04-25 02:21:00,50.0,48.0,-100.00,SW,220,18.0,22.0,93,-99.99,,,-99.99,,2013-04-25 06:21:00,
2013-04-25 02:31:00,50.0,48.0,-100.00,SW,220,18.0,22.0,93,-99.99,,,-99.99,,2013-04-25 06:31:00,
2013-04-25 02:41:00,50.0,48.0,-100.00,SW,220,16.0,18.0,93,-99.99,,,-99.99,,2013-04-25 06:41:00,
2013-04-25 02:52:00,50.0,48.0,-100.00,SW,220,16.0,18.0,93,-99.99,,,-99.99,,2013-04-25 06:52:00,
2013-04-25 03:00:00,48.0,47.0,-100.00,West,260,7.0,9.0,94,-99.99,,,-99.99,,2013-04-25 07:00:00,
2013-04-25 03:01:00,49.0,47.0,-100.00,SW,230,13.0,16.0,94,-99.99,,,-99.99,,2013-04-25 07:01:00,
2013-04-25 03:11:00,49.0,47.0,-100.00,SW,230,13.0,16.0,94,-99.99,,,-99.99,,2013-04-25 07:11:00,
2013-04-25 03:21:00,49.0,47.0,-100.00,West,260,11.0,13.0,93,-99.99,,,-99.99,,2013-04-25 07:21:00,
2013-04-25 03:31:00,49.0,47.0,-100.00,West,260,11.0,13.0,93,-99.99,,,-99.99,,2013-04-25 07:31:00,
2013-04-25 03:41:00,48.0,47.0,-100.00,West,260,7.0,9.0,94,-99.99,,,-99.99,,2013-04-25 07:41:00,
2013-04-25 03:52:00,48.0,47.0,-100.00,West,260,7.0,9.0,94,-99.99,,,-99.99,,2013-04-25 07:52:00,
2013-04-25 04:11:00,47.0,46.0,-100.00,West,280,4.0,7.0,95,-99.99,,,-99.99,,2013-04-25 08:11:00,
2013-04-25 04:21:00,48.0,47.0,-100.00,NW,310,4.0,9.0,96,-99.99,,,-99.99,,2013-04-25 08:21:00,
2013-04-25 04:31:00,48.0,47.0,-100.00,NW,310,4.0,9.0,96,-99.99,,,-99.99,,2013-04-25 08:31:00,
2013-04-25 04:41:00,48.0,47.0,-100.00,NW,310,4.0,9.0,96,-99.99,,,-99.99,,2013-04-25 08:41:00,
2013-04-25 04:51:00,48.0,47.0,-100.00,NW,310,4.0,9.0,96,-99.99,,,-99.99,,2013-04-25 08:51:00,
2013-04-25 05:01:00,47.0,46.0,-100.00,West,260,7.0,7.0,96,-99.99,,,-99.99,,2013-04-25 09:01:00,
2013-04-25 05:11:00,47.0,46.0,-100.00,West,260,7.0,7.0,96,-99.99,,,-99.99,,2013-04-25 09:11:00,
2013-04-25 05:21:00,48.0,47.0,-100.00,West,260,11.0,16.0,96,-99.99,,,-99.99,,2013-04-25 09:21:00,
2013-04-25 05:32:00,48.0,47.0,-100.00,West,260,11.0,16.0,96,-99.99,,,-99.99,,2013-04-25 09:32:00,
2013-04-25 05:42:00,48.0,47.0,-100.00,West,260,13.0,16.0,96,-99.99,,,-99.99,,2013-04-25 09:42:00,
2013-04-25 05:52:00,48.0,47.0,-100.00,West,260,13.0,16.0,96,-99.99,,,-99.99,,2013-04-25 09:52:00,
2013-04-25 06:02:00,50.0,44.0,-100.00,West,270,18.0,20.0,79,-99.99,,,-99.99,,2013-04-25 10:02:00,
2013-04-25 06:11:00,50.0,44.0,-100.00,West,270,18.0,20.0,79,-99.99,,,-99.99,,2013-04-25 10:11:00,
2013-04-25 06:22:00,50.0,42.0,-100.00,West,280,18.0,22.0,74,-99.99,,,-99.99,,2013-04-25 10:22:00,
2013-04-25 06:32:00,50.0,42.0,-100.00,West,280,18.0,22.0,74,-99.99,,,-99.99,,2013-04-25 10:32:00,
2013-04-25 06:41:00,50.0,42.0,-100.00,West,280,16.0,20.0,73,-99.99,,,-99.99,,2013-04-25 10:41:00,
2013-04-25 06:52:00,50.0,42.0,-100.00,West,280,16.0,20.0,73,-99.99,,,-99.99,,2013-04-25 10:52:00,
2013-04-25 07:02:00,49.0,43.0,-100.00,NW,310,11.0,16.0,79,-99.99,,,-99.99,,2013-04-25 11:02:00,
2013-04-25 07:11:00,49.0,43.0,-100.00,NW,310,11.0,16.0,79,-99.99,,,-99.99,,2013-04-25 11:11:00,
2013-04-25 07:21:00,48.0,39.0,-100.00,NW,320,16.0,20.0,68,-99.99,,,-99.99,,2013-04-25 11:21:00,
2013-04-25 07:32:00,48.0,39.0,-100.00,NW,320,16.0,20.0,68,-99.99,,,-99.99,,2013-04-25 11:32:00,
2013-04-25 07:42:00,48.0,39.0,-100.00,NW,320,16.0,20.0,68,-99.99,,,-99.99,,2013-04-25 11:42:00,
2013-04-25 07:51:00,48.0,39.0,-100.00,NW,320,16.0,20.0,68,-99.99,,,-99.99,,2013-04-25 11:51:00,
2013-04-25 08:01:00,48.0,38.0,-100.00,NW,320,16.0,20.0,68,-99.99,,,-99.99,,2013-04-25 12:01:00,
2013-04-25 08:11:00,48.0,38.0,-100.00,NW,320,16.0,20.0,68,-99.99,,,-99.99,,2013-04-25 12:11:00,
2013-04-25 08:21:00,48.0,38.0,-100.00,NW,320,13.0,18.0,67,-99.99,,,-99.99,,2013-04-25 12:21:00,
2013-04-25 08:31:00,48.0,38.0,-100.00,NW,320,13.0,18.0,67,-99.99,,,-99.99,,2013-04-25 12:31:00,
2013-04-25 08:41:00,48.0,38.0,-100.00,NNW,330,11.0,16.0,68,-99.99,,,-99.99,,2013-04-25 12:41:00,
2013-04-25 08:51:00,48.0,38.0,-100.00,NNW,330,11.0,16.0,68,-99.99,,,-99.99,,2013-04-25 12:51:00,
2013-04-25 09:01:00,48.0,35.0,-100.00,NNW,340,16.0,20.0,61,-99.99,,,-99.99,,2013-04-25 13:01:00,
2013-04-25 09:11:00,48.0,35.0,-100.00,NNW,340,16.0,20.0,61,-99.99,,,-99.99,,2013-04-25 13:11:00,
2013-04-25 09:21:00,48.0,35.0,-100.00,NNW,330,16.0,22.0,61,-99.99,,,-99.99,,2013-04-25 13:21:00,
2013-04-25 09:31:00,48.0,35.0,-100.00,NNW,330,16.0,22.0,61,-99.99,,,-99.99,,2013-04-25 13:31:00,
2013-04-25 09:42:00,48.0,35.0,-100.00,NW,320,16.0,22.0,61,-99.99,,,-99.99,,2013-04-25 13:42:00,
2013-04-25 09:52:00,48.0,35.0,-100.00,NW,320,16.0,22.0,61,-99.99,,,-99.99,,2013-04-25 13:52:00,
2013-04-25 10:01:00,48.0,37.0,-100.00,NW,320,11.0,13.0,65,-99.99,,,-99.99,,2013-04-25 14:01:00,
2013-04-25 10:11:00,48.0,37.0,-100.00,NW,320,11.0,13.0,65,-99.99,,,-99.99,,2013-04-25 14:11:00,
2013-04-25 10:21:00,48.0,37.0,-100.00,NNW,330,7.0,9.0,66,-99.99,,,-99.99,,2013-04-25 14:21:00,
2013-04-25 10:32:00,48.0,37.0,-100.00,NNW,330,7.0,9.0,66,-99.99,,,-99.99,,2013-04-25 14:32:00,
2013-04-25 10:41:00,48.0,37.0,-100.00,NNW,330,7.0,9.0,66,-99.99,,,-99.99,,2013-04-25 14:41:00,
2013-04-25 10:51:00,48.0,37.0,-100.00,NNW,330,7.0,9.0,66,-99.99,,,-99.99,,2013-04-25 14:51:00,
2013-04-25 11:00:00,48.0,39.0,-100.00,WNW,300,7.0,9.0,71,-99.99,,,-99.99,,2013-04-25 15:00:00,
2013-04-25 11:01:00,48.0,38.0,-100.00,WNW,300,7.0,9.0,68,-99.99,,,-99.99,,2013-04-25 15:01:00,
2013-04-25 11:11:00,48.0,38.0,-100.00,WNW,300,7.0,9.0,68,-99.99,,,-99.99,,2013-04-25 15:11:00,
2013-04-25 11:21:00,48.0,38.0,-100.00,WNW,300,9.0,9.0,68,-99.99,,,-99.99,,2013-04-25 15:21:00,
2013-04-25 11:32:00,48.0,38.0,-100.00,WNW,300,9.0,9.0,68,-99.99,,,-99.99,,2013-04-25 15:32:00,
2013-04-25 11:42:00,48.0,39.0,-100.00,WNW,300,7.0,9.0,71,-99.99,,,-99.99,,2013-04-25 15:42:00,
2013-04-25 11:52:00,48.0,39.0,-100.00,WNW,300,7.0,9.0,71,-99.99,,,-99.99,,2013-04-25 15:52:00,
2013-04-25 12:13:00,48.0,40.0,-100.00,West,280,7.0,9.0,72,-99.99,,,-99.99,,2013-04-25 16:13:00,
2013-04-25 12:24:00,49.0,39.0,-100.00,West,260,7.0,9.0,69,-99.99,,,-99.99,,2013-04-25 16:24:00,
2013-04-25 12:32:00,49.0,40.0,-100.00,WSW,250,9.0,11.0,70,-99.99,,,-99.99,,2013-04-25 16:32:00,
2013-04-25 12:42:00,49.0,40.0,-100.00,WSW,250,9.0,11.0,70,-99.99,,,-99.99,,2013-04-25 16:42:00,
2013-04-25 12:52:00,49.0,40.0,-100.00,WSW,250,9.0,11.0,70,-99.99,,,-99.99,,2013-04-25 16:52:00,
2013-04-25 13:02:00,48.0,41.0,-100.00,SW,230,11.0,13.0,75,-99.99,,,-99.99,,2013-04-25 17:02:00,
2013-04-25 13:11:00,48.0,41.0,-100.00,SW,230,11.0,13.0,75,-99.99,,,-99.99,,2013-04-25 17:11:00,
2013-04-25 13:22:00,48.0,42.0,-100.00,SW,230,11.0,16.0,79,-99.99,,,-99.99,,2013-04-25 17:22:00,
2013-04-25 13:31:00,48.0,42.0,-100.00,SW,230,11.0,16.0,79,-99.99,,,-99.99,,2013-04-25 17:31:00,
2013-04-25 13:41:00,48.0,41.0,-100.00,SW,230,13.0,16.0,76,-99.99,,,-99.99,,2013-04-25 17:41:00,
2013-04-25 13:53:00,48.0,41.0,-100.00,SW,230,13.0,16.0,76,-99.99,,,-99.99,,2013-04-25 17:53:00,
2013-04-25 14:01:00,48.0,40.0,-100.00,SW,230,13.0,16.0,72,-99.99,,,-99.99,,2013-04-25 18:01:00,
2013-04-25 14:11:00,48.0,40.0,-100.00,SW,230,13.0,16.0,72,-99.99,,,-99.99,,2013-04-25 18:11:00,
2013-04-25 14:21:00,49.0,39.0,-100.00,SW,230,13.0,16.0,70,-99.99,,,-99.99,,2013-04-25 18:21:00,
2013-04-25 14:31:00,49.0,39.0,-100.00,SW,230,13.0,16.0,70,-99.99,,,-99.99,,2013-04-25 18:31:00,
2013-04-25 14:42:00,49.0,39.0,-100.00,SW,230,11.0,13.0,68,-99.99,,,-99.99,,2013-04-25 18:42:00,
2013-04-25 14:52:00,49.0,39.0,-100.00,SW,230,11.0,13.0,68,-99.99,,,-99.99,,2013-04-25 18:52:00,
2013-04-25 15:01:00,49.0,39.0,-100.00,SW,230,11.0,13.0,66,-99.99,,,-99.99,,2013-04-25 19:01:00,
2013-04-25 15:11:00,49.0,39.0,-100.00,SW,230,11.0,13.0,66,-99.99,,,-99.99,,2013-04-25 19:11:00,
2013-04-25 15:21:00,50.0,39.0,-100.00,SW,230,11.0,13.0,66,-99.99,,,-99.99,,2013-04-25 19:21:00,
2013-04-25 15:31:00,50.0,39.0,-100.00,SW,230,11.0,13.0,66,-99.99,,,-99.99,,2013-04-25 19:31:00,
2013-04-25 15:41:00,49.0,40.0,-100.00,SW,220,9.0,11.0,69,-99.99,,,-99.99,,2013-04-25 19:41:00,
2013-04-25 15:52:00,49.0,40.0,-100.00,SW,220,9.0,11.0,69,-99.99,,,-99.99,,2013-04-25 19:52:00,
2013-04-25 16:01:00,49.0,41.0,-100.00,SW,220,9.0,11.0,71,-99.99,,,-99.99,,2013-04-25 20:01:00,
2013-04-25 16:11:00,49.0,41.0,-100.00,SW,220,9.0,11.0,71,-99.99,,,-99.99,,2013-04-25 20:11:00,
2013-04-25 16:21:00,50.0,39.0,-100.00,SW,230,11.0,13.0,64,-99.99,,,-99.99,,2013-04-25 20:21:00,
2013-04-25 16:31:00,50.0,39.0,-100.00,SW,230,11.0,13.0,64,-99.99,,,-99.99,,2013-04-25 20:31:00,
2013-04-25 16:42:00,51.0,38.0,-100.00,WSW,240,11.0,13.0,63,-99.99,,,-99.99,,2013-04-25 20:42:00,
2013-04-25 16:51:00,51.0,38.0,-100.00,WSW,240,11.0,13.0,63,-99.99,,,-99.99,,2013-04-25 20:51:00,
2013-04-25 17:01:00,50.0,40.0,-100.00,SW,220,11.0,13.0,68,-99.99,,,-99.99,,2013-04-25 21:01:00,
2013-04-25 17:11:00,50.0,40.0,-100.00,SW,220,11.0,13.0,68,-99.99,,,-99.99,,2013-04-25 21:11:00,
2013-04-25 17:21:00,51.0,39.0,-100.00,SW,230,11.0,13.0,64,-99.99,,,-99.99,,2013-04-25 21:21:00,
2013-04-25 17:32:00,51.0,39.0,-100.00,SW,230,11.0,13.0,64,-99.99,,,-99.99,,2013-04-25 21:32:00,
2013-04-25 17:42:00,51.0,40.0,-100.00,SW,230,9.0,11.0,65,-99.99,,,-99.99,,2013-04-25 21:42:00,
2013-04-25 17:52:00,51.0,40.0,-100.00,SW,230,9.0,11.0,65,-99.99,,,-99.99,,2013-04-25 21:52:00,
2013-04-25 18:02:00,51.0,39.0,-100.00,WSW,240,11.0,11.0,62,-99.99,,,-99.99,,2013-04-25 22:02:00,
2013-04-25 18:12:00,51.0,39.0,-100.00,WSW,240,11.0,11.0,62,-99.99,,,-99.99,,2013-04-25 22:12:00,
2013-04-25 18:22:00,51.0,39.0,-100.00,WSW,240,9.0,11.0,62,-99.99,,,-99.99,,2013-04-25 22:22:00,
2013-04-25 18:32:00,51.0,39.0,-100.00,WSW,240,9.0,11.0,62,-99.99,,,-99.99,,2013-04-25 22:32:00,
2013-04-25 19:02:00,51.0,39.0,-100.00,WSW,250,11.0,11.0,62,-99.99,,,-99.99,,2013-04-25 23:02:00,
2013-04-25 19:11:00,51.0,39.0,-100.00,WSW,250,11.0,11.0,62,-99.99,,,-99.99,,2013-04-25 23:11:00,
2013-04-25 19:21:00,51.0,39.0,-100.00,West,260,9.0,11.0,64,-99.99,,,-99.99,,2013-04-25 23:21:00,
2013-04-25 19:32:00,51.0,39.0,-100.00,West,260,9.0,11.0,64,-99.99,,,-99.99,,2013-04-25 23:32:00,
2013-04-25 19:41:00,51.0,39.0,-100.00,West,260,9.0,11.0,63,-99.99,,,-99.99,,2013-04-25 23:41:00,
2013-04-25 19:52:00,51.0,39.0,-100.00,West,260,9.0,11.0,63,-99.99,,,-99.99,,2013-04-25 23:52:00,
2013-04-25 20:01:00,50.0,40.0,-100.00,WSW,250,4.0,7.0,68,-99.99,,,-99.99,,2013-04-26 00:01:00,
2013-04-25 20:11:00,50.0,40.0,-100.00,WSW,250,4.0,7.0,68,-99.99,,,-99.99,,2013-04-26 00:11:00,
2013-04-25 20:21:00,49.0,40.0,-100.00,WSW,250,4.0,7.0,71,-99.99,,,-99.99,,2013-04-26 00:21:00,
2013-04-25 20:31:00,49.0,40.0,-100.00,WSW,250,4.0,7.0,71,-99.99,,,-99.99,,2013-04-26 00:31:00,
2013-04-25 20:41:00,49.0,40.0,-100.00,WSW,240,4.0,4.0,69,-99.99,,,-99.99,,2013-04-26 00:41:00,
2013-04-25 20:51:00,49.0,40.0,-100.00,WSW,240,4.0,4.0,69,-99.99,,,-99.99,,2013-04-26 00:51:00,
2013-04-25 21:01:00,51.0,38.0,-100.00,WSW,250,4.0,4.0,61,-99.99,,,-99.99,,2013-04-26 01:01:00,
2013-04-25 21:11:00,51.0,38.0,-100.00,WSW,250,4.0,4.0,61,-99.99,,,-99.99,,2013-04-26 01:11:00,
2013-04-25 21:21:00,52.0,35.0,-100.00,SW,220,4.0,7.0,52,-99.99,,,-99.99,,2013-04-26 01:21:00,
2013-04-25 21:31:00,52.0,35.0,-100.00,SW,220,4.0,7.0,52,-99.99,,,-99.99,,2013-04-26 01:31:00,
2013-04-25 21:41:00,52.0,35.0,-100.00,SW,220,4.0,7.0,52,-99.99,,,-99.99,,2013-04-26 01:41:00,
2013-04-25 21:52:00,52.0,35.0,-100.00,SW,220,4.0,7.0,52,-99.99,,,-99.99,,2013-04-26 01:52:00,
2013-04-25 22:01:00,50.0,38.0,-100.00,SW,220,7.0,9.0,63,-99.99,,,-99.99,,2013-04-26 02:01:00,
2013-04-25 22:11:00,50.0,38.0,-100.00,SW,220,7.0,9.0,63,-99.99,,,-99.99,,2013-04-26 02:11:00,
2013-04-25 22:21:00,50.0,38.0,-100.00,SW,220,7.0,9.0,62,-99.99,,,-99.99,,2013-04-26 02:21:00,
2013-04-25 22:31:00,50.0,38.0,-100.00,SW,220,7.0,9.0,62,-99.99,,,-99.99,,2013-04-26 02:31:00,
2013-04-25 22:41:00,49.0,40.0,-100.00,SSW,210,7.0,9.0,69,-99.99,,,-99.99,,2013-04-26 02:41:00,
2013-04-25 22:51:00,49.0,40.0,-100.00,SSW,210,7.0,9.0,69,-99.99,,,-99.99,,2013-04-26 02:51:00,
2013-04-25 23:01:00,49.0,40.0,-100.00,East,100,4.0,7.0,70,-99.99,,,-99.99,,2013-04-26 03:01:00,
2013-04-25 23:11:00,49.0,40.0,-100.00,East,100,4.0,7.0,70,-99.99,,,-99.99,,2013-04-26 03:11:00,
2013-04-25 23:21:00,50.0,38.0,-100.00,SW,220,4.0,9.0,65,-99.99,,,-99.99,,2013-04-26 03:21:00,
2013-04-25 23:32:00,50.0,38.0,-100.00,SW,220,4.0,9.0,65,-99.99,,,-99.99,,2013-04-26 03:32:00,
2013-04-25 23:43:00,50.0,38.0,-100.00,West,280,4.0,7.0,64,-99.99,,,-99.99,,2013-04-26 03:43:00,
2013-04-25 23:52:00,50.0,38.0,-100.00,West,280,4.0,7.0,64,-99.99,,,-99.99,,2013-04-26 03:52:00,